Regional Weather Roundup
Issued by NWS

Home | Current Version | Previous Version | Graphics & Text | Print | Product List | Glossary On
Versions: 1 2 3 4 5 6 7 8 9 10 11 12 13 14 15 16 17 18 19 20 21 22 23 24 25 26 27 28 29 30 31 32 33 34 35 36 37 38 39 40 41 42 43 44 45 46 47 48 49 50
000
ASUS43 KFSD 280210
RWRSD

WEATHER ROUNDUP FOR SOUTH DAKOTA
NATIONAL WEATHER SERVICE SIOUX FALLS SD
900 PM CDT WED AUG 27 2014

NOTE: "FAIR" INDICATES FEW OR NO CLOUDS BELOW 12,000 FEET WITH NO
SIGNIFICANT WEATHER AND/OR OBSTRUCTIONS TO VISIBILITY.


SDZ001>005-009-010-012>017-280300-
NORTHWEST AND NORTH CENTRAL SOUTH DAKOTA

CITY           SKY/WX    TMP DP  RH WIND       PRES   REMARKS
BUFFALO          N/A     64  60  87 SE8       30.00R
FAITH            N/A     66  64  93 E6        30.06R
MOBRIDGE       CLOUDY    69  64  84 E9        30.01R
$$

SDZ012>016-024>037-041>051-057-063-072>074-280300-
SOUTHWEST AND SOUTH CENTRAL SOUTH DAKOTA

CITY           SKY/WX    TMP DP  RH WIND       PRES   REMARKS
RAPID CTY ARPT LGT RAIN  64  62  93 SE7       30.08R
PIERRE         CLOUDY    71  66  84 E9        30.01R
CUSTER         CLOUDY    59  56  89 NE6       30.18R
ELLSWORTH AFB  LGT RAIN  65  64  94 SE9       30.08
PHILIP         LGT RAIN  70  66  87 CALM      30.01F
PINE RIDGE     CLOUDY    65  63  93 NE6       30.04F
WINNER         CLOUDY    70  66  87 E8        30.03S
$$

SDZ004>011-016>023-039-040-280300-
NORTHEAST SOUTH DAKOTA

CITY           SKY/WX    TMP DP  RH WIND       PRES   REMARKS
ABERDEEN       CLOUDY    66  63  90 E7        30.05S
WATERTOWN      PTCLDY    68  62  81 SE3       30.08S
SISSETON         N/A     66  62  87 SE5       30.07S
$$

SDZ017-020-022-023-036>040-048>070-280300-
SOUTHEAST SOUTH DAKOTA

CITY           SKY/WX    TMP DP  RH WIND       PRES   REMARKS
SIOUX FALLS    CLOUDY    70  66  87 E8        30.08R
HURON          MOCLDY    70  64  81 SE7       30.04S
CHAMBERLAIN    CLOUDY    68  65  91 SE8       30.04S
MITCHELL       MOCLDY    69  66  90 E6        30.05R
YANKTON        CLOUDY    70  66  88 E7        30.05S
$$

ABBREVIATIONS USED IN REMARKS
   TC - TEMPERATURE IN CELSIUS
  WCI - WIND CHILL INDEX
   HX - HEAT INDEX
  VSB - VISIBILITY



USA.gov is the U.S. government's official web portal to all federal, state and local government web resources and services.